Hourly Data Report for November 07, 2019

All times are specified in Local Standard Time (LST). Add 1 hour to adjust for Daylight Saving Time where and when it is observed.

WOODSTOCK NEWBRIDGE
NEW BRUNSWICK
Current Station Operator: ECCC - MSC

46°09'08.000" N
67°32'34.000" W
154.00 m
8105603
71606
EWD

Download Data

Hourly Data (November 2019)
Hourly Data Report for November 7, 2019
TIME Temp Definition
°C
Dew Point Definition
°C
Rel Hum Definition
%
Wind Dir Definition
10's deg

Wind Spd Definition
km/h
Visibility Definition
km
Stn Press Definition
kPa
Hmdx Definition


Wind Chill Definition


Weather Definition


00:00 -1.3 -6.0 71 15 2   100.63   -2 LegendNANA
01:00 -0.7 -6.1 67 19 5   100.63   -2 LegendNANA
02:00 -0.7 -6.1 67 19 3   100.58   -2 LegendNANA
03:00 -0.8 -5.6 70 13 4   100.54   -2 LegendNANA
04:00 -0.7 -5.1 72 0 1   100.48   -1 LegendNANA
05:00 -0.2 -5.7 66 16 4   100.45   -1 LegendNANA
06:00 -0.1 -5.3 68 16 6   100.40   -2 LegendNANA
07:00 0.0 -5.4 67 14 4   100.37   -1 LegendNANA
08:00 0.2 -5.2 67 16 5   100.36     LegendNANA
09:00 1.0 -5.0 64 16 4   100.34     LegendNANA
10:00 1.6 -4.4 64 11 2   100.25     LegendNANA
11:00 1.6 -3.1 71 12 7   100.21     LegendNANA
12:00 0.3 -0.4 95 15 2   100.13     LegendNANA
13:00 0.4 -0.3 96 0 1   99.99     LegendNANA
14:00 0.2 -0.3 96 35 1   99.91     LegendNANA
15:00 0.2 -0.3 97   0   99.88     LegendNANA
16:00 0.2 -0.3 96   0   99.82     LegendNANA
17:00 0.1 -0.3 97   0   99.79     LegendNANA
18:00 0.0 -0.3 98   0   99.78     LegendNANA
19:00 0.0 -0.3 98   0   99.74     LegendNANA
20:00 0.0 -0.3 98   0   99.71     LegendNANA
21:00 0.0 -0.3 98   0   99.69     LegendNANA
22:00 0.0 -0.3 98   0   99.62     LegendNANA
23:00 0.0 -0.4 97   0   99.58     LegendNANA

Notes on Data Quality.

Legend

  • E = Estimated
  • M = Missing
  • NA = Not Available
Date modified: